"2010-10-08 00:00:00",227821,8.05,222.6,1.257,0.163,20.74,109.102,22.59,23.46,17.21,0,110.9,13.18,23.42,184.6
"2010-10-08 00:00:30",227822,8.15,221.7,1.185,0.142,20.81,109.1004,22.58,23.45,17.16,0,110.9,13.18,23.41,183.7
"2010-10-08 00:01:00",227823,7.951,221.7,1.526,0.273,20.77,109.0958,22.57,23.45,17.2,0,110.9,13.18,23.40,183.7
"2010-10-08 00:01:30",227824,7.831,219.8,1.47,0.188,20.72,109.0853,22.55,23.42,17.3,0,110.9,13.18,23.38,181.8
"2010-10-08 00:02:00",227825,7.627,220.4,1.353,0.239,20.71,109.0759,22.52,23.42,17.25,0,110.9,13.18,23.35,182.4
"2010-10-08 00:02:30",227826,8.18,221.8,1.991,0.2,20.78,109.0753,22.52,23.41,17.22,0,110.9,13.18,23.35,183.8
"2010-10-08 00:03:00",227827,8.27,220,1.6,0.377,20.88,109.0756,22.52,23.42,17.1,0,110.9,13.18,23.35,182.0
"2010-10-08 00:03:30",227828,8.59,222.9,1.808,0.483,20.88,109.0756,22.52,23.4,17.08,0,110.9,13.18,23.35,184.9
"2010-10-08 00:04:00",227829,8.23,224.6,1.465,0.121,20.79,109.0756,22.52,23.41,17.28,0,110.9,13.18,23.35,186.6
"2010-10-08 00:04:30",227830,8.2,221.8,0.937,0.108,20.92,109.0756,22.52,23.4,17.25,0,110.9,13.17,23.35,183.8
"2010-10-08 00:05:00",227831,8.03,220.9,1.088,0.115,20.84,109.0756,22.52,23.41,17.19,0,110.9,13.17,23.35,182.9
"2010-10-08 00:05:30",227832,7.833,224.3,2.09,0.117,20.78,109.0756,22.52,23.4,17.26,0,110.9,13.17,23.35,186.3
"2010-10-08 00:06:00",227833,7.902,224.2,0.822,0.131,20.84,109.0756,22.52,23.39,17.28,0,110.9,13.17,23.35,186.2
"2010-10-08 00:06:30",227834,8.31,224.6,0.798,0.121,20.85,109.0756,22.52,23.39,17.14,0,110.9,13.17,23.35,186.6
"2010-10-08 00:07:00",227835,8.42,224.3,0.959,0.176,20.91,109.0756,22.52,23.39,17.22,0,110.9,13.17,23.35,186.3
"2010-10-08 00:07:30",227836,8.86,225,1.248,0.13,20.91,109.0756,22.52,23.37,17.22,0,110.9,13.17,23.35,187.0
"2010-10-08 00:08:00",227837,9.19,223.6,1.495,0.269,20.95,109.0756,22.52,23.39,17.32,0,110.9,13.17,23.35,185.6
"2010-10-08 00:08:30",227838,8.75,223.2,1.771,0.177,20.95,109.0756,22.52,23.4,17.36,0,110.9,13.17,23.35,185.2
"2010-10-08 00:09:00",227839,9,217.9,1.56,0.154,20.98,109.0756,22.52,23.38,17.38,0,110.9,13.17,23.35,179.9
"2010-10-08 00:09:30",227840,8.66,214.7,0.9,0.245,20.95,109.0756,22.52,23.4,17.58,0,110.9,13.17,23.35,176.7
"2010-10-08 00:10:00",227841,8.49,220.5,2.416,0.238,20.93,109.0756,22.52,23.39,17.43,0,110.9,13.18,23.35,182.5
"2010-10-08 00:10:30",227842,9.06,220.8,1.357,0.389,20.97,109.0756,22.52,23.4,17.64,0,110.9,13.18,23.35,182.8
"2010-10-08 00:11:00",227843,8.86,221.7,1.308,0.169,20.95,109.0756,22.52,23.4,17.5,0,110.9,13.19,23.35,183.7
"2010-10-08 00:11:30",227844,8.98,221.2,0.89,0.435,20.96,109.0756,22.52,23.4,17.38,0,110.9,13.19,23.35,183.2
"2010-10-08 00:12:00",227845,9.6,221.1,1.021,0.085,21.02,109.0756,22.52,23.41,17.62,0,110.9,13.19,23.35,183.1
"2010-10-08 00:12:30",227846,9.71,221,1.203,0.186,20.98,109.0756,22.52,23.4,17.42,0,110.9,13.19,23.35,183.0
"2010-10-08 00:13:00",227847,9.89,222.2,1.496,0.2,21.02,109.0756,22.52,23.41,17.64,0,110.9,13.19,23.35,184.2
"2010-10-08 00:13:30",227848,9.84,221.6,0.907,0.157,20.94,109.0756,22.52,23.41,17.45,0,110.9,13.19,23.35,183.6
"2010-10-08 00:14:00",227849,9.59,222.2,1.058,0.154,20.85,109.0756,22.52,23.42,17.41,0,110.9,13.19,23.35,184.2
"2010-10-08 00:14:30",227850,9.83,222.1,1.263,0.12,20.92,109.0756,22.52,23.41,17.46,0,110.9,13.19,23.35,184.1
"2010-10-08 00:15:00",227851,10.24,224.3,1.118,0.118,20.99,109.0742,22.52,23.41,17.51,0,110.9,13.19,23.35,186.3
"2010-10-08 00:15:30",227852,9.96,225.3,0.947,0.086,20.96,109.0733,22.51,23.4,17.49,0,110.9,13.19,23.34,187.3
"2010-10-08 00:16:00",227853,9.89,225.3,0.787,0.144,20.98,109.0714,22.51,23.4,17.55,0,110.9,13.19,23.34,187.3
"2010-10-08 00:16:30",227854,9.61,225,0.693,0.106,20.96,109.0683,22.5,23.4,17.57,0,110.9,13.19,23.33,187.0
"2010-10-08 00:17:00",227855,9.49,225,0.944,0.074,20.95,109.0652,22.49,23.41,17.56,0,110.9,13.19,23.32,187.0
"2010-10-08 00:17:30",227856,9.49,226.4,1.567,0.123,21,109.069,22.5,23.39,17.63,0,110.9,13.19,23.33,188.4
"2010-10-08 00:18:00",227857,9.15,228.5,0.842,0.163,20.92,109.0709,22.51,23.4,17.65,0,110.9,13.19,23.34,190.5
"2010-10-08 00:18:30",227858,8.99,227.7,0.791,0.125,20.92,109.0696,22.5,23.39,17.67,0,110.9,13.19,23.34,189.7
"2010-10-08 00:19:00",227859,9,227.5,0.596,0.101,20.88,109.063,22.49,23.41,17.72,0,110.9,13.19,23.32,189.5
"2010-10-08 00:19:30",227860,9.05,226.5,0.779,0.158,20.94,109.0568,22.47,23.4,17.86,0,110.9,13.19,23.30,188.5
"2010-10-08 00:20:00",227861,8.87,226.8,0.627,0.166,20.92,109.051,22.46,23.4,17.93,0,110.9,13.19,23.29,188.8
"2010-10-08 00:20:30",227862,9.06,225.2,0.476,0.083,20.92,109.0492,22.45,23.39,17.97,0,110.9,13.19,23.28,187.2
"2010-10-08 00:21:00",227863,9.15,226.7,0.775,0.193,20.95,109.047,22.45,23.4,18.07,0,110.9,13.19,23.28,188.7
"2010-10-08 00:21:30",227864,8.83,227.2,0.689,0.116,20.9,109.0479,22.45,23.4,18.09,0,110.9,13.19,23.28,189.2
"2010-10-08 00:22:00",227865,8.94,227.7,1.081,0.18,20.92,109.0513,22.46,23.37,18.08,0,110.9,13.19,23.29,189.7
"2010-10-08 00:22:30",227866,8.89,227.8,0.577,0.122,20.9,109.0507,22.46,23.4,18.07,0,110.9,13.19,23.29,189.8
"2010-10-08 00:23:00",227867,8.75,227.6,1.319,0.071,20.9,109.0541,22.46,23.38,18.11,0,110.9,13.18,23.30,189.6
"2010-10-08 00:23:30",227868,8.77,225.9,0.555,0.051,20.97,109.0559,22.47,23.38,18.13,0,110.9,13.18,23.30,187.9
"2010-10-08 00:24:00",227869,8.68,226.4,0.481,0.065,20.88,109.0596,22.48,23.37,18.15,0,110.9,13.18,23.31,188.4
"2010-10-08 00:24:30",227870,8.59,228.2,0.955,0.083,20.91,109.0608,22.48,23.36,18.16,0,110.9,13.18,23.31,190.2
"2010-10-08 00:25:00",227871,8.65,228,0.661,0.108,20.93,109.0621,22.49,23.36,18.1,0,110.9,13.19,23.32,190.0
"2010-10-08 00:25:30",227872,8.83,227.1,1.174,0.114,20.9,109.0616,22.48,23.34,18.11,0,110.9,13.18,23.31,189.1
"2010-10-08 00:26:00",227873,8.51,228.5,1.399,0.124,20.88,109.055,22.47,23.34,18.15,0,110.9,13.19,23.30,190.5
"2010-10-08 00:26:30",227874,8.59,225.2,1.526,0.114,20.86,109.0455,22.44,23.34,18.18,0,110.9,13.19,23.27,187.2
"2010-10-08 00:27:00",227875,8.32,223.9,1.241,0.117,20.87,109.0387,22.43,23.32,18.2,0,110.9,13.19,23.26,185.9
"2010-10-08 00:27:30",227876,8.23,226.5,1.101,0.125,20.87,109.0363,22.42,23.32,18.2,0,110.9,13.19,23.25,188.5
"2010-10-08 00:28:00",227877,8.55,228.8,0.835,0.14,20.88,109.0375,22.42,23.31,18.28,0,110.9,13.19,23.25,190.8
"2010-10-08 00:28:30",227878,8.61,226.7,1.172,0.188,20.93,109.0403,22.43,23.32,18.35,0,110.9,13.19,23.26,188.7
"2010-10-08 00:29:00",227879,8.75,226.1,0.872,0.199,20.86,109.0387,22.43,23.31,18.37,0,110.9,13.19,23.26,188.1
"2010-10-08 00:29:30",227880,8.25,222.4,1.234,0.159,20.9,109.0424,22.44,23.3,18.38,0,110.9,13.19,23.27,184.4
"2010-10-08 00:30:00",227881,7.766,223.5,1.086,0.178,20.88,109.0427,22.44,23.3,18.4,0,110.9,13.19,23.27,185.5
"2010-10-08 00:30:30",227882,7.634,222.1,1.332,0.113,20.85,109.0421,22.43,23.29,18.44,0,110.9,13.19,23.26,184.1
"2010-10-08 00:31:00",227883,7.502,221.1,0.875,0.186,20.84,109.0425,22.44,23.29,18.44,0,110.9,13.2,23.27,183.1
"2010-10-08 00:31:30",227884,7.538,220.9,1.751,0.134,20.8,109.0349,22.42,23.27,18.42,0,110.9,13.19,23.25,182.9
"2010-10-08 00:32:00",227885,7.301,224.1,1.353,0.165,20.84,109.0223,22.38,23.26,18.45,0,110.9,13.2,23.21,186.1
"2010-10-08 00:32:30",227886,7.48,221,1.241,0.192,20.81,109.0184,22.37,23.27,18.47,0,110.9,13.2,23.20,183.0
"2010-10-08 00:33:00",227887,7.402,219.3,2.525,0.146,20.8,109.0128,22.36,23.25,18.46,0,110.9,13.2,23.19,181.3
"2010-10-08 00:33:30",227888,7.373,221.7,1.279,0.147,20.83,109.0111,22.35,23.24,18.49,0,110.9,13.2,23.18,183.7
"2010-10-08 00:34:00",227889,7.562,222.1,1.062,0.101,20.79,109.0111,22.35,23.25,18.53,0,110.9,13.2,23.18,184.1
"2010-10-08 00:34:30",227890,7.701,221.3,1.165,0.109,20.76,109.0111,22.35,23.23,18.57,0,110.9,13.2,23.18,183.3
"2010-10-08 00:35:00",227891,7.659,221.8,1.336,0.145,20.78,109.0111,22.35,23.22,18.58,0,110.9,13.2,23.18,183.8
"2010-10-08 00:35:30",227892,7.784,222.5,1.778,0.159,20.79,109.0111,22.35,23.21,18.61,0,110.9,13.2,23.18,184.5
"2010-10-08 00:36:00",227893,7.652,219.6,0.913,0.122,20.73,109.0069,22.34,23.22,18.61,0,110.9,13.2,23.17,181.6
"2010-10-08 00:36:30",227894,7.958,226.7,2.21,0.115,20.8,108.9974,22.32,23.21,18.74,0,110.9,13.2,23.15,188.7
"2010-10-08 00:37:00",227895,7.596,224.3,2.119,0.157,20.77,108.9889,22.3,23.21,18.76,0,110.9,13.2,23.13,186.3
"2010-10-08 00:37:30",227896,7.35,219.7,1.953,0.198,20.74,108.9796,22.27,23.18,18.74,0,110.9,13.2,23.10,181.7
"2010-10-08 00:38:00",227897,7.558,221.5,1.052,0.144,20.74,108.9774,22.27,23.18,18.74,0,110.9,13.2,23.10,183.5
"2010-10-08 00:38:30",227898,7.635,222.3,1.655,0.12,20.76,108.9774,22.27,23.17,18.8,0,110.9,13.19,23.10,184.3
"2010-10-08 00:39:00",227899,7.796,221.9,1.601,0.171,20.73,108.9774,22.27,23.15,18.84,0,110.9,13.19,23.10,183.9
"2010-10-08 00:39:30",227900,7.485,223,1.242,0.153,20.75,108.9774,22.27,23.14,18.85,0,110.9,13.19,23.10,185.0
"2010-10-08 00:40:00",227901,7.666,223,1.352,0.156,20.76,108.9774,22.27,23.14,18.9,0,110.9,13.19,23.10,185.0
"2010-10-08 00:40:30",227902,8.09,222.2,0.999,0.129,20.74,108.9737,22.26,23.13,18.97,0,110.9,13.19,23.09,184.2
"2010-10-08 00:41:00",227903,8.21,221.4,1.186,0.188,20.81,108.963,22.23,23.13,18.97,0,110.9,13.19,23.06,183.4
"2010-10-08 00:41:30",227904,8.1,221.4,1.171,0.266,20.78,108.954,22.21,23.12,18.98,0,110.9,13.19,23.04,183.4
"2010-10-08 00:42:00",227905,8.21,219.1,1.982,0.262,20.77,108.9518,22.2,23.12,19.01,0,110.9,13.19,23.03,181.1
"2010-10-08 00:42:30",227906,7.933,219.1,1.336,0.176,20.77,108.9464,22.19,23.11,19,0,110.9,13.19,23.02,181.1
"2010-10-08 00:43:00",227907,8.09,218.8,1.746,0.158,20.74,108.9442,22.18,23.11,19.02,0,110.9,13.19,23.01,180.8
"2010-10-08 00:43:30",227908,7.934,221.4,2.476,0.3,20.76,108.9439,22.18,23.09,19.04,0,110.9,13.19,23.01,183.4
"2010-10-08 00:44:00",227909,8.35,224.5,1.841,0.219,20.75,108.9436,22.18,23.1,19.1,0,110.9,13.2,23.01,186.5
"2010-10-08 00:44:30",227910,8.12,220.4,1.139,0.138,20.72,108.9436,22.18,23.08,19.12,0,110.9,13.2,23.01,182.4
"2010-10-08 00:45:00",227911,8.19,224,1.302,0.09,20.78,108.9436,22.18,23.09,19.18,0,110.9,13.2,23.01,186.0
"2010-10-08 00:45:30",227912,8.25,223.1,1.046,0.189,20.72,108.9436,22.18,23.09,19.22,0,110.9,13.2,23.01,185.1
"2010-10-08 00:46:00",227913,8.59,222.3,1.7,0.113,20.73,108.9422,22.18,23.06,19.25,0,110.9,13.2,23.01,184.3
"2010-10-08 00:46:30",227914,8.63,225.1,1.08,0.112,20.76,108.9377,22.17,23.06,19.27,0,110.9,13.2,23.00,187.1
"2010-10-08 00:47:00",227915,8.69,225.2,0.627,0.192,20.69,108.9352,22.16,23.04,19.3,0,110.9,13.2,22.99,187.2
"2010-10-08 00:47:30",227916,8.65,223.6,1.144,0.209,20.7,108.9228,22.13,23.06,19.41,0,110.9,13.2,22.96,185.6
"2010-10-08 00:48:00",227917,8.38,225.2,0.783,0.128,20.78,108.9099,22.09,23.05,19.38,0,110.9,13.2,22.92,187.2
"2010-10-08 00:48:30",227918,8.62,225.5,0.837,0.087,20.74,108.9099,22.09,23.03,19.43,0,110.9,13.2,22.92,187.5
"2010-10-08 00:49:00",227919,8.74,224.4,1.878,0.202,20.66,108.9099,22.09,23.02,19.47,0,110.9,13.2,22.92,186.4
"2010-10-08 00:49:30",227920,8.73,224,0.915,0.194,20.7,108.9099,22.09,23,19.51,0,110.9,13.2,22.92,186.0
"2010-10-08 00:50:00",227921,8.84,223.8,1.491,0.124,20.68,108.9099,22.09,23.01,19.55,0,110.9,13.2,22.92,185.8
"2010-10-08 00:50:30",227922,8.87,223,1.807,0.178,20.69,108.9093,22.09,23,19.59,0,110.9,13.2,22.92,185.0
"2010-10-08 00:51:00",227923,8.61,223,1.651,0.103,20.7,108.8995,22.07,22.98,19.6,0,110.9,13.2,22.90,185.0
"2010-10-08 00:51:30",227924,8.78,225.6,0.709,0.152,20.67,108.8874,22.04,22.97,19.63,0,110.9,13.2,22.87,187.6
"2010-10-08 00:52:00",227925,9.18,225.8,0.957,0.166,20.68,108.8834,22.03,22.96,19.68,0,110.9,13.2,22.86,187.8
"2010-10-08 00:52:30",227926,9.42,228.1,1.026,0.161,20.69,108.8789,22.02,22.96,19.73,0,110.9,13.2,22.84,190.1
"2010-10-08 00:53:00",227927,9.02,225.9,2.133,0.208,20.63,108.8764,22.01,22.97,19.77,0,110.9,13.2,22.84,187.9
"2010-10-08 00:53:30",227928,8.89,227.2,0.803,0.096,20.7,108.8761,22.01,22.95,19.79,0,110.8,13.2,22.84,189.2
"2010-10-08 00:54:00",227929,9.11,228.8,0.843,0.136,20.76,108.8761,22.01,22.96,19.8,0,110.9,13.2,22.84,190.8
"2010-10-08 00:54:30",227930,9.04,227.7,1.06,0.119,20.74,108.8764,22.01,22.95,19.84,0,110.9,13.2,22.84,189.7
"2010-10-08 00:55:00",227931,8.87,228.7,0.929,0.16,20.73,108.8761,22.01,22.94,19.87,0,110.9,13.2,22.84,190.7
"2010-10-08 00:55:30",227932,8.77,228,1.068,0.227,20.65,108.8767,22.01,22.94,19.9,0,110.8,13.2,22.84,190.0
"2010-10-08 00:56:00",227933,9.08,226.9,0.817,0.151,20.71,108.8771,22.01,22.94,19.92,0,110.8,13.2,22.84,188.9
"2010-10-08 00:56:30",227934,9.05,227.7,1.082,0.097,20.68,108.8789,22.02,22.94,19.97,0,110.8,13.2,22.84,189.7
"2010-10-08 00:57:00",227935,8.9,227.8,0.953,0.124,20.68,108.8783,22.01,22.94,20.06,0,110.8,13.2,22.84,189.8
"2010-10-08 00:57:30",227936,9.14,228,0.968,0.164,20.7,108.8832,22.03,22.94,20.07,0,110.8,13.2,22.86,190.0
"2010-10-08 00:58:00",227937,9.53,228.9,1.063,0.193,20.74,108.8856,22.03,22.93,20.29,0,110.8,13.2,22.86,190.9
"2010-10-08 00:58:30",227938,9.45,226,1.063,0.242,20.74,108.8847,22.03,22.92,20.61,0,110.8,13.2,22.86,188.0
"2010-10-08 00:59:00",227939,8.84,222.2,1.716,0.211,20.69,108.8887,22.04,22.94,20.48,0,110.8,13.2,22.87,184.2
"2010-10-08 00:59:30",227940,8.95,221.5,1.632,0.279,20.69,108.8887,22.04,22.93,20.67,0,110.8,13.2,22.87,183.5
"2010-10-08 01:00:00",227941,8.61,220.4,1.519,0.146,20.53,108.8865,22.03,22.93,20.32,0,110.8,13.2,22.86,182.4
"2010-10-08 01:00:30",227942,8.93,220.6,0.803,0.232,20.58,108.8683,21.99,22.9,20.32,0,110.8,13.2,22.82,182.6
"2010-10-08 01:01:00",227943,9.59,218.6,1.059,0.253,20.68,108.8601,21.97,22.89,20.39,0,110.8,13.2,22.80,180.6
"2010-10-08 01:01:30",227944,9.76,220.9,1.506,0.225,20.72,108.8611,21.97,22.88,21.39,0,110.8,13.2,22.80,182.9
"2010-10-08 01:02:00",227945,9.5,218.2,1.817,0.235,20.7,108.8635,21.98,22.89,21.34,0,110.8,13.2,22.80,180.2
"2010-10-08 01:02:30",227946,8.92,218.4,1.085,0.19,20.61,108.8653,21.98,22.88,20.51,0,110.8,13.2,22.81,180.4
"2010-10-08 01:03:00",227947,9.02,218.1,1.519,0.106,20.65,108.8644,21.98,22.85,20.46,0,110.8,13.21,22.81,180.1
"2010-10-08 01:03:30",227948,9.05,217.1,0.511,0.144,20.55,108.8663,21.98,22.84,20.52,0,110.8,13.21,22.81,179.1
"2010-10-08 01:04:00",227949,9.01,217.3,0.611,0.117,20.54,108.8672,21.99,22.85,20.49,0,110.8,13.21,22.81,179.3
"2010-10-08 01:04:30",227950,9.15,219,2.522,0.208,20.56,108.8566,21.96,22.84,20.74,0,110.8,13.2,22.79,181.0
"2010-10-08 01:05:00",227951,10.18,215.1,1.954,0.537,20.58,108.8423,21.92,22.83,21.14,0,110.8,13.21,22.75,177.1
"2010-10-08 01:05:30",227952,10.99,213.6,1.123,0.169,20.67,108.8379,21.91,22.8,21.85,0,110.8,13.21,22.74,175.6
"2010-10-08 01:06:00",227953,10.48,214.3,0.866,0.217,20.64,108.8362,21.91,22.81,21.9,0,110.8,13.21,22.73,176.3
"2010-10-08 01:06:30",227954,10.79,214,1.023,0.203,20.58,108.8362,21.91,22.8,22.02,0,110.8,13.21,22.73,176.0
"2010-10-08 01:07:00",227955,10.53,213.9,0.791,0.155,20.67,108.8374,21.91,22.81,22.17,0,110.8,13.21,22.74,175.9
"2010-10-08 01:07:30",227956,10.54,213.3,1.006,0.347,20.61,108.8368,21.91,22.79,23.47,0,110.8,13.21,22.74,175.3
"2010-10-08 01:08:00",227957,10.48,210.6,1.539,0.245,20.6,108.8374,21.91,22.78,23.27,0,110.8,13.21,22.74,172.6
"2010-10-08 01:08:30",227958,10.06,209.1,1.277,0.136,20.66,108.8377,21.91,22.77,23.23,0,110.8,13.21,22.74,171.1
"2010-10-08 01:09:00",227959,9.83,209.6,1.309,0.113,20.62,108.836,21.91,22.77,23.31,0,110.8,13.21,22.73,171.6
"2010-10-08 01:09:30",227960,9.56,209.4,0.718,0.099,20.76,108.8321,21.9,22.76,23.34,0,110.8,13.21,22.72,171.4
"2010-10-08 01:10:00",227961,9.62,209.6,0.611,0.1,20.65,108.824,21.87,22.75,23.72,0,110.8,13.21,22.70,171.6
"2010-10-08 01:10:30",227962,9.83,209.6,0.719,0.138,20.58,108.8123,21.84,22.75,24.22,0,110.8,13.21,22.67,171.6
"2010-10-08 01:11:00",227963,9.75,209.6,0.825,0.106,20.61,108.8057,21.83,22.75,24.3,0,110.8,13.21,22.66,171.6
"2010-10-08 01:11:30",227964,9.4,210,0.985,0.111,20.74,108.8058,21.83,22.74,24.25,0,110.8,13.21,22.66,172.0
"2010-10-08 01:12:00",227965,9.18,209.1,0.672,0.085,20.68,108.8082,21.83,22.72,24.2,0,110.8,13.21,22.66,171.1
"2010-10-08 01:12:30",227966,9.07,208.5,0.636,0.075,20.6,108.8073,21.83,22.72,24.3,0,110.8,13.2,22.66,170.5
"2010-10-08 01:13:00",227967,9.45,209.4,0.954,0.288,20.65,108.8073,21.83,22.71,24.43,0,110.8,13.2,22.66,171.4
"2010-10-08 01:13:30",227968,10.1,209.4,0.657,0.219,20.59,108.8098,21.84,22.7,24.45,0,110.8,13.2,22.67,171.4
"2010-10-08 01:14:00",227969,10.13,207.7,0.727,0.143,20.61,108.8101,21.84,22.7,24.42,0,110.8,13.2,22.67,169.7
"2010-10-08 01:14:30",227970,9.99,206.7,0.76,0.088,20.58,108.8048,21.82,22.68,24.42,0,110.8,13.2,22.65,168.7
"2010-10-08 01:15:00",227971,10.15,203.6,1.019,0.244,20.55,108.78,21.76,22.66,24.35,0,110.8,13.2,22.59,165.6
"2010-10-08 01:15:30",227972,10.36,205.3,1.3,0.135,20.49,108.7772,21.75,22.66,24.38,0,110.8,13.2,22.58,167.3
"2010-10-08 01:16:00",227973,10.58,203.2,1.949,0.275,20.55,108.7754,21.75,22.63,24.47,0,110.8,13.2,22.58,165.2
"2010-10-08 01:16:30",227974,11.25,200.8,1.045,0.202,20.57,108.7688,21.73,22.62,24.78,0,110.8,13.2,22.56,162.8
"2010-10-08 01:17:00",227975,11.64,200.7,0.564,0.252,20.55,108.7485,21.68,22.61,24.72,0,110.8,13.2,22.51,162.7
"2010-10-08 01:17:30",227976,11.5,199.6,2.163,0.445,20.52,108.7431,21.67,22.6,25.01,0,110.8,13.2,22.49,161.6
"2010-10-08 01:18:00",227977,11.36,200.8,1.199,0.227,20.53,108.7438,21.67,22.58,25.12,0,110.8,13.21,22.50,162.8
"2010-10-08 01:18:30",227978,11.73,201.6,2.742,0.391,20.5,108.7294,21.63,22.56,25.32,0,110.8,13.21,22.46,163.6
"2010-10-08 01:19:00",227979,12.93,202,1.856,0.663,20.52,108.7117,21.59,22.53,25.37,0,110.8,13.21,22.41,164.0
"2010-10-08 01:19:30",227980,13.04,204.8,1.289,0.469,20.65,108.7103,21.58,22.53,25.36,0,110.8,13.21,22.41,166.8
"2010-10-08 01:20:00",227981,12.97,203.4,1.345,0.48,20.59,108.7103,21.58,22.51,25.33,0,110.8,13.21,22.41,165.4
"2010-10-08 01:20:30",227982,12.86,204.9,1.714,0.277,20.52,108.71,21.58,22.5,25.44,0,110.8,13.21,22.41,166.9
"2010-10-08 01:21:00",227983,12.55,206.4,1.202,0.511,20.48,108.7091,21.58,22.47,25.52,0,110.8,13.21,22.41,168.4
"2010-10-08 01:21:30",227984,12.27,202.4,0.897,0.211,20.47,108.7033,21.56,22.47,25.61,0,110.8,13.21,22.39,164.4
"2010-10-08 01:22:00",227985,12.12,203.6,1.269,0.33,20.49,108.681,21.51,22.46,25.68,0,110.8,13.22,22.33,165.6
"2010-10-08 01:22:30",227986,12.35,204.3,1.488,0.314,20.5,108.6766,21.5,22.45,25.66,0,110.8,13.22,22.32,166.3
"2010-10-08 01:23:00",227987,12.59,205.1,1.624,0.236,20.5,108.6766,21.5,22.41,25.68,0,110.8,13.22,22.32,167.1
"2010-10-08 01:23:30",227988,12.18,203.8,1.439,0.297,20.42,108.6766,21.5,22.4,25.78,0,110.8,13.22,22.32,165.8
"2010-10-08 01:24:00",227989,12.35,204.9,1.508,0.731,20.46,108.6721,21.48,22.37,25.79,0,110.8,13.22,22.31,166.9
"2010-10-08 01:24:30",227990,11.38,205.2,3.531,0.247,20.42,108.6543,21.44,22.37,25.84,0,110.8,13.22,22.27,167.2
"2010-10-08 01:25:00",227991,12.04,205.7,2.636,0.255,20.39,108.6434,21.41,22.36,25.88,0,110.8,13.22,22.24,167.7
"2010-10-08 01:25:30",227992,12.13,205.9,2.612,0.277,20.43,108.6428,21.41,22.33,25.85,0,110.8,13.22,22.24,167.9
"2010-10-08 01:26:00",227993,11.13,208.1,2.099,0.401,20.33,108.6428,21.41,22.32,25.98,0,110.8,13.22,22.24,170.1
"2010-10-08 01:26:30",227994,11.5,207.9,1.758,0.626,20.36,108.6417,21.41,22.31,26,0,110.8,13.22,22.23,169.9
"2010-10-08 01:27:00",227995,12.61,206.4,1.695,0.349,20.45,108.6346,21.39,22.3,25.92,0,110.8,13.22,22.21,168.4
"2010-10-08 01:27:30",227996,12.09,201.9,1.095,0.217,20.4,108.6209,21.35,22.28,26,0,110.8,13.22,22.18,163.9
"2010-10-08 01:28:00",227997,12.17,203.7,1.878,0.443,20.37,108.6096,21.32,22.27,26,0,110.8,13.22,22.15,165.7
"2010-10-08 01:28:30",227998,12.11,204.8,1.664,0.329,20.36,108.609,21.32,22.24,26.03,0,110.8,13.22,22.15,166.8
"2010-10-08 01:29:00",227999,12.37,206.8,2.124,0.589,20.36,108.609,21.32,22.24,26,0,110.8,13.22,22.15,168.8
"2010-10-08 01:29:30",228000,11.84,202.9,2.385,0.394,20.34,108.609,21.32,22.24,26.06,0,110.8,13.21,22.15,164.9
"2010-10-08 01:30:00",228001,11.73,204.4,1.461,0.496,20.36,108.6074,21.32,22.21,26.11,0,110.8,13.21,22.14,166.4
"2010-10-08 01:30:30",228002,11.75,201.9,2.39,0.27,20.32,108.5896,21.27,22.19,26.18,0,110.8,13.21,22.10,163.9
"2010-10-08 01:31:00",228003,11.74,202.6,1.719,0.251,20.39,108.5798,21.25,22.18,26.19,0,110.8,13.21,22.07,164.6
"2010-10-08 01:31:30",228004,11.4,204.8,0.928,0.274,20.3,108.5753,21.24,22.18,26.2,0,110.8,13.2,22.06,166.8
"2010-10-08 01:32:00",228005,12.1,204.4,2.199,0.205,20.37,108.5753,21.24,22.17,26.21,0,110.8,13.21,22.06,166.4
"2010-10-08 01:32:30",228006,12.64,206.4,1.708,0.339,20.36,108.5753,21.24,22.16,26.11,0,110.8,13.21,22.06,168.4
"2010-10-08 01:33:00",228007,12.37,204.7,1.798,0.445,20.33,108.5753,21.24,22.14,26.16,0,110.8,13.21,22.06,166.7
"2010-10-08 01:33:30",228008,12.22,202.3,1.992,0.232,20.33,108.5753,21.24,22.13,26.15,0,110.8,13.21,22.06,164.3
"2010-10-08 01:34:00",228009,12.43,206.9,2.359,0.606,20.3,108.5708,21.22,22.12,26.2,0,110.8,13.21,22.05,168.9
"2010-10-08 01:34:30",228010,13.15,205.8,1.115,0.238,20.38,108.5652,21.21,22.12,25.88,0,110.8,13.21,22.04,167.8
"2010-10-08 01:35:00",228011,13.2,204.2,1.357,0.159,20.32,108.5604,21.2,22.11,25.89,0,110.8,13.22,22.02,166.2
"2010-10-08 01:35:30",228012,13.11,205.6,1.434,0.579,20.33,108.5598,21.2,22.1,25.87,0,110.8,13.22,22.02,167.6
"2010-10-08 01:36:00",228013,13.42,205.7,1.58,0.272,20.4,108.5674,21.22,22.11,25.83,0,110.8,13.22,22.04,167.7
"2010-10-08 01:36:30",228014,13.07,207,1.692,0.386,20.31,108.564,21.21,22.09,25.88,0,110.8,13.22,22.03,169.0
"2010-10-08 01:37:00",228015,12.69,206.3,2.341,0.28,20.29,108.5553,21.18,22.09,25.98,0,110.8,13.22,22.01,168.3
"2010-10-08 01:37:30",228016,13.22,205.7,2.05,0.314,20.3,108.5491,21.17,22.09,25.87,0,110.8,13.22,21.99,167.7
"2010-10-08 01:38:00",228017,13.99,206.6,1.082,0.374,20.41,108.5469,21.16,22.09,25.7,0,110.8,13.22,21.99,168.6
"2010-10-08 01:38:30",228018,14.04,207.2,0.897,0.192,20.38,108.5488,21.17,22.07,25.6,0,110.8,13.22,21.99,169.2
"2010-10-08 01:39:00",228019,13.74,205.1,2.381,0.275,20.34,108.5491,21.17,22.07,25.65,0,110.8,13.22,21.99,167.1
"2010-10-08 01:39:30",228020,13.62,209,2.443,0.285,20.37,108.5497,21.17,22.08,25.65,0,110.8,13.22,22.00,171.0
"2010-10-08 01:40:00",228021,12.8,204.9,1.732,0.38,20.29,108.5469,21.16,22.07,25.83,0,110.8,13.22,21.99,166.9
"2010-10-08 01:40:30",228022,13.5,207.6,2.364,0.437,20.28,108.5421,21.15,22.07,25.72,0,110.8,13.22,21.98,169.6
"2010-10-08 01:41:00",228023,13.59,205.5,1.403,0.427,20.36,108.5415,21.15,22.06,25.62,0,110.8,13.22,21.97,167.5
"2010-10-08 01:41:30",228024,13.59,206.1,1.599,0.25,20.3,108.5415,21.15,22.06,25.5,0,110.8,13.22,21.97,168.1
"2010-10-08 01:42:00",228025,13.46,208.6,2.235,0.269,20.28,108.5415,21.15,22.06,25.56,0,110.8,13.22,21.97,170.6
"2010-10-08 01:42:30",228026,13.45,206.2,1.216,0.215,20.28,108.5415,21.15,22.06,25.52,0,110.8,13.22,21.97,168.2
"2010-10-08 01:43:00",228027,13.98,206.9,1.023,0.174,20.29,108.5415,21.15,22.05,25.46,0,110.8,13.22,21.97,168.9
"2010-10-08 01:43:30",228028,13.57,205.3,1.084,0.487,20.31,108.5415,21.15,22.06,25.53,0,110.8,13.22,21.97,167.3
"2010-10-08 01:44:00",228029,13.38,208.8,2.092,0.428,20.25,108.5415,21.15,22.06,25.63,0,110.8,13.22,21.97,170.8
"2010-10-08 01:44:30",228030,13.16,207.3,1.685,0.33,20.23,108.5415,21.15,22.05,25.68,0,110.8,13.22,21.97,169.3
"2010-10-08 01:45:00",228031,13.43,207,2.06,0.314,20.25,108.5415,21.15,22.04,25.56,0,110.8,13.22,21.97,169.0
"2010-10-08 01:45:30",228032,13.55,206.5,2.264,0.243,20.2,108.541,21.15,22.05,25.65,0,110.8,13.22,21.97,168.5
"2010-10-08 01:46:00",228033,12.87,205.6,2.527,0.335,20.21,108.5336,21.13,22.03,25.77,0,110.8,13.22,21.95,167.6
"2010-10-08 01:46:30",228034,13.39,208.2,1.366,0.488,20.25,108.5176,21.09,22.01,25.68,0,110.8,13.22,21.91,170.2
"2010-10-08 01:47:00",228035,14.09,207.8,1.559,0.263,20.32,108.5134,21.08,22.02,25.45,0,110.8,13.22,21.90,169.8
"2010-10-08 01:47:30",228036,13.63,207.1,1.052,0.243,20.23,108.512,21.07,22.02,25.64,0,110.8,13.22,21.90,169.1
"2010-10-08 01:48:00",228037,13.66,208.1,1.177,0.255,20.24,108.5086,21.06,22,25.72,0,110.8,13.22,21.89,170.1
"2010-10-08 01:48:30",228038,13.74,207.6,1.277,0.254,20.27,108.5078,21.06,22,25.68,0,110.8,13.22,21.89,169.6